This is the latest recevied weather packets stored in our database for station/object DD5ZT-13. If no packets are shown the sender has not sent any weather packets the latest 10 day(s).
| Time | Temp. | Humidity | Pressure | Rain* | Wind** | Luminosity | Snow |
|---|---|---|---|---|---|---|---|
| 1787885991 | 67° F | 66% | 759.6 mmHg | 0 in | - | - | - |
| 1787885365 | 67° F | 67% | 759.6 mmHg | 0 in | - | - | - |
| 1787884740 | 68° F | 66% | 759.8 mmHg | 0 in | - | - | - |
| 1787884115 | 68° F | 65% | 760 mmHg | 0 in | - | - | - |
| 1787883490 | 68° F | 65% | 760 mmHg | 0 in | - | - | - |
| 1787882865 | 68° F | 66% | 760.3 mmHg | 0 in | - | - | - |
| 1787882240 | 68° F | 63% | 760.4 mmHg | 0 in | - | - | - |
| 1787881615 | 68° F | 64% | 760.5 mmHg | 0 in | - | - | - |
| 1787880990 | 69° F | 63% | 760.6 mmHg | 0 in | - | - | - |
| 1787880364 | 68° F | 63% | 760.8 mmHg | 0 in | - | - | - |
| 1787879114 | 69° F | 61% | 761 mmHg | 0 in | - | - | - |
| 1787878489 | 69° F | 61% | 761.1 mmHg | 0 in | - | - | - |
| 1787877864 | 69° F | 60% | 761 mmHg | 0 in | - | - | - |
| 1787877239 | 69° F | 59% | 761.1 mmHg | 0 in | - | - | - |
| 1787876614 | 69° F | 58% | 761.2 mmHg | 0 in | - | - | - |
| 1787875363 | 69° F | 58% | 761.3 mmHg | 0 in | - | - | - |
| 1787874738 | 69° F | 58% | 761.4 mmHg | 0 in | - | - | - |
| 1787874113 | 69° F | 59% | 761.4 mmHg | 0 in | - | - | - |
| 1787873488 | 69° F | 61% | 761.6 mmHg | 0 in | - | - | - |
| 1787872863 | 69° F | 60% | 761.7 mmHg | 0 in | - | - | - |
| 1787872238 | 70° F | 60% | 761.9 mmHg | 0 in | - | - | - |
| 1787871613 | 70° F | 62% | 762.1 mmHg | 0 in | - | - | - |
| 1787870987 | 70° F | 62% | 762.2 mmHg | 0 in | - | - | - |
| 1787870362 | 70° F | 63% | 762.4 mmHg | 0 in | - | - | - |
| 1787869112 | 70° F | 60% | 762.5 mmHg | 0 in | - | - | - |
* Rain latest hour (hover to see other rain measurements)
** Current wind speed in m/s (hover to see current wind gust speed)